Date String (YYYY-MM-DD hh:mm:ss) UTC,Instrument flags,Ambient pressure (hPa),Sample flow (lpm),Bypass flow (lpm),Sample temperature (°C),Ambient temperature (°C),ASC tube jacket temperature (°C),LED temperature (°C),Box temperature (°C),Sample RH (%),Span deviation,Mass concentration (μg/m³),Mass concentration (μg/m³),Mass concentration (μg/m³)
DateTimeUTC,F1_M11,P_M11,Q1_M11,Q2_M11,T1_M11,T2_M11,T3_M11,T4_M11,T5_M11,U1_M11,ZSPAN_M11,X0_M11,X2_M11,X1_M11
2022-01-06 18:00:00,,0823.7,4.98,0.00,21.6,22.2,00.0,30.8,23.3,04.7,0001.4,0010.65,0006.25,0005.59
2022-01-06 18:01:00,,0823.7,5.00,0.00,21.8,22.8,00.0,30.8,23.6,04.6,0001.6,0010.47,0006.21,0005.56
2022-01-06 18:02:00,,0823.6,5.01,0.00,21.8,22.5,00.0,30.8,23.5,04.7,0002.0,0011.27,0006.29,0005.56
2022-01-06 18:03:00,,0823.7,5.00,0.00,21.7,22.0,00.0,30.8,23.3,04.7,0002.4,0011.37,0006.30,0005.54
2022-01-06 18:04:00,,0823.7,5.00,0.00,21.7,21.6,00.0,30.8,23.2,04.8,0002.2,0011.30,0006.28,0005.53
2022-01-06 18:05:00,,0823.6,5.01,0.00,21.6,21.2,00.0,30.8,23.0,04.7,0002.3,0011.06,0006.26,0005.52
2022-01-06 18:06:00,,0823.6,5.00,0.00,21.5,21.0,00.0,30.7,22.9,04.8,0002.1,0010.93,0006.27,0005.52
2022-01-06 18:07:00,,0823.6,5.01,0.00,21.5,20.9,00.0,30.7,22.9,04.8,0002.3,0010.74,0006.23,0005.51
2022-01-06 18:08:00,,0823.4,4.99,0.00,21.5,21.6,00.0,30.7,23.1,04.8,0002.5,0010.81,0006.23,0005.51
2022-01-06 18:09:00,,0823.3,5.01,0.00,21.7,22.5,00.0,30.8,23.5,04.8,0002.9,0010.76,0006.20,0005.51
2022-01-06 18:10:00,,0823.4,4.99,0.00,21.9,23.1,00.0,30.8,23.8,04.8,0003.3,0010.73,0006.18,0005.50
2022-01-06 18:11:00,,0823.4,5.01,0.00,21.9,22.8,00.0,30.8,23.7,04.7,0003.3,0010.74,0006.18,0005.50
2022-01-06 18:12:00,,0823.3,5.00,0.00,21.9,22.4,00.0,30.8,23.6,04.8,0002.9,0010.79,0006.21,0005.51
2022-01-06 18:13:00,,0823.2,5.00,0.00,21.9,22.0,00.0,30.8,23.4,04.8,0002.7,0009.97,0006.11,0005.49
2022-01-06 18:14:00,,0823.2,4.99,0.00,21.8,21.6,00.0,30.8,23.4,04.8,0002.4,0010.24,0006.07,0005.49
2022-01-06 18:15:00,,0823.3,5.01,0.00,21.8,21.4,00.0,30.8,23.3,04.9,0002.3,0010.80,0006.13,0005.51
2022-01-06 18:16:00,,0823.2,4.99,0.00,21.8,21.2,00.0,30.8,23.3,04.9,0001.7,0011.15,0006.16,0005.51
2022-01-06 18:17:00,,0823.2,5.00,0.00,21.7,20.9,00.0,30.8,23.2,04.9,0001.7,0011.70,0006.16,0005.52
2022-01-06 18:18:00,,0823.2,5.01,0.00,21.6,20.7,00.0,30.7,23.0,04.9,0001.6,0011.74,0006.17,0005.53
2022-01-06 18:19:00,,0823.3,5.00,0.00,21.6,20.8,00.0,30.7,23.0,04.9,0001.0,0011.87,0006.15,0005.55
2022-01-06 18:20:00,,0823.2,5.01,0.00,21.7,21.8,00.0,30.8,23.3,04.9,0001.0,0012.16,0006.19,0005.56
2022-01-06 18:21:00,,0823.1,5.00,0.00,21.8,22.8,00.0,30.8,23.7,04.9,0000.4,0012.27,0006.24,0005.59
2022-01-06 18:22:00,,0823.0,4.99,0.00,22.0,22.7,00.0,30.8,23.8,04.8,0000.5,0012.25,0006.25,0005.61
2022-01-06 18:23:00,,0823.0,5.00,0.00,21.9,22.3,00.0,30.9,23.7,04.8,0000.6,0012.18,0006.23,0005.62
2022-01-06 18:24:00,,0823.0,5.00,0.00,21.9,21.9,00.0,30.9,23.6,04.8,0000.7,0012.19,0006.24,0005.62
2022-01-06 18:25:00,,0823.0,5.01,0.00,21.9,21.5,00.0,30.8,23.5,04.8,0001.2,0011.81,0006.26,0005.62
2022-01-06 18:26:00,,0823.1,4.98,0.00,21.8,21.2,00.0,30.8,23.4,04.8,0001.8,0011.32,0006.22,0005.61
2022-01-06 18:27:00,,0823.1,5.00,0.00,21.7,20.9,00.0,30.8,23.2,04.9,0002.2,0011.18,0006.27,0005.63
2022-01-06 18:28:00,,0823.0,5.01,0.00,21.7,20.7,00.0,30.8,23.1,04.9,0002.0,0010.72,0006.30,0005.63
2022-01-06 18:29:00,,0823.0,5.01,0.00,21.6,20.5,00.0,30.7,23.0,05.0,0001.7,0010.80,0006.34,0005.65
2022-01-06 18:30:00,,0822.9,5.00,0.00,21.5,20.3,00.0,30.7,22.9,04.9,0001.9,0010.60,0006.36,0005.64
2022-01-06 18:31:00,,0822.9,5.00,0.00,21.4,20.6,00.0,30.7,22.9,04.9,0001.5,0010.36,0006.37,0005.65
2022-01-06 18:32:00,,0822.7,4.99,0.00,21.6,21.7,00.0,30.7,23.2,04.9,0001.8,0010.31,0006.36,0005.66
2022-01-06 18:33:00,,0822.7,5.01,0.00,21.7,22.7,00.0,30.8,23.6,04.9,0002.3,0010.33,0006.36,0005.67
2022-01-06 18:34:00,,0822.8,4.99,0.00,21.9,22.7,00.0,30.8,23.7,04.9,0002.3,0010.41,0006.39,0005.69
2022-01-06 18:35:00,,0822.7,5.01,0.00,21.8,22.2,00.0,30.8,23.5,04.8,0002.1,0010.42,0006.40,0005.70
2022-01-06 18:36:00,,0822.8,5.01,0.00,21.8,21.8,00.0,30.8,23.4,04.9,0002.1,0010.39,0006.40,0005.72
2022-01-06 18:37:00,,0822.8,4.99,0.00,21.7,21.4,00.0,30.8,23.2,04.9,0002.0,0010.48,0006.44,0005.75
2022-01-06 18:38:00,,0822.8,5.01,0.00,21.6,21.2,00.0,30.7,23.0,04.9,0002.0,0010.40,0006.42,0005.77
2022-01-06 18:39:00,,0822.7,4.99,0.00,21.5,21.0,00.0,30.7,22.9,04.9,0002.3,0010.42,0006.45,0005.79
2022-01-06 18:40:00,,0822.7,5.01,0.00,21.4,20.6,00.0,30.7,22.8,04.9,0002.3,0010.57,0006.51,0005.79
2022-01-06 18:41:00,,0822.6,5.01,0.00,21.4,20.3,00.0,30.6,22.8,05.0,0002.2,0010.61,0006.54,0005.81
2022-01-06 18:42:00,,0822.6,5.00,0.00,21.4,21.0,00.0,30.6,23.0,05.0,0002.2,0010.59,0006.53,0005.83
2022-01-06 18:43:00,,0822.4,5.01,0.00,21.6,22.1,00.0,30.7,23.3,04.9,0002.2,0010.70,0006.55,0005.84
2022-01-06 18:44:00,,0822.4,5.00,0.00,21.8,23.0,00.0,30.7,23.7,04.9,0002.1,0010.71,0006.57,0005.84
2022-01-06 18:45:00,,0822.3,5.00,0.00,21.9,22.8,00.0,30.8,23.7,04.9,0001.8,0010.78,0006.61,0005.86
2022-01-06 18:46:00,,0822.3,4.99,0.00,21.9,22.4,00.0,30.8,23.6,04.9,0001.9,0010.87,0006.65,0005.88
2022-01-06 18:47:00,,0822.4,5.00,0.00,21.8,22.1,00.0,30.8,23.4,04.9,0001.7,0010.86,0006.67,0005.90
2022-01-06 18:48:00,,0822.4,4.99,0.00,21.7,21.7,00.0,30.8,23.2,04.9,0001.6,0010.87,0006.70,0005.92
2022-01-06 18:49:00,,0822.3,4.99,0.00,21.6,21.4,00.0,30.7,23.0,04.9,0001.3,0010.83,0006.68,0005.91
2022-01-06 18:50:00,,0822.2,5.01,0.00,21.5,21.1,00.0,30.7,22.9,05.0,0001.3,0010.77,0006.65,0005.92
2022-01-06 18:51:00,,0822.1,5.01,0.00,21.4,20.8,00.0,30.7,22.7,05.0,0001.2,0010.66,0006.61,0005.93
2022-01-06 18:52:00,,0822.1,5.00,0.00,21.3,20.6,00.0,30.6,22.6,05.0,0001.1,0010.59,0006.59,0005.95
2022-01-06 18:53:00,,0822.1,5.00,0.00,21.4,21.4,00.0,30.6,22.9,05.0,0001.1,0010.63,0006.59,0005.95
2022-01-06 18:54:00,,0822.1,4.99,0.00,21.6,22.4,00.0,30.7,23.3,05.0,0001.1,0010.64,0006.60,0005.95
2022-01-06 18:55:00,,0822.1,5.01,0.00,21.7,22.8,00.0,30.7,23.6,05.0,0001.1,0010.68,0006.62,0005.97
2022-01-06 18:56:00,,0821.9,5.01,0.00,21.7,22.4,00.0,30.7,23.4,05.0,0001.5,0010.92,0006.63,0005.99
2022-01-06 18:57:00,,0822.0,5.00,0.00,21.6,21.9,00.0,30.7,23.2,05.0,0001.8,0011.09,0006.65,0005.99
2022-01-06 18:58:00,,0822.0,5.00,0.00,21.5,21.5,00.0,30.7,23.0,05.0,0001.8,0011.18,0006.69,0006.00
2022-01-06 18:59:00,,0822.2,5.00,0.00,21.5,21.2,00.0,30.7,22.8,05.1,0001.9,0011.11,0006.67,0006.00
